ARABSAT-6A

Last updated on Tue Nov 19 2024 00:02:43 GMT+0000 (Coordinated Universal Time)

1 44186U 19021A 24323.51446951 .00000157 00000+0 00000+0 0 9996 2 44186 0.0377 2.6810 0006504 256.2038 14.8986 1.00275021 20387
UTC large
Height (km)
Speed (km/s)
/
Latitude / Longitude
Inclination (degrees)
Orbital Period (minutes)
Azimuth
Elevation
Range (km)
Doppler Factor

Next 0 passes for location: London (51.5072 / 0.1276)

Sorry there are no passes over London.